Hat Yai, Thailand

7:04 PM +07 on September 25, 2017 (GMT +0700)
Hat Yai International

Weather History for VTSS - November, 2013

Change the Weather History Date:

Sunday, November 10, 2013

  Actual Average Record
Temperature  
Mean Temperature 83 °F -  
Max Temperature 90 °F 84 °F 93 °F (2005)
Min Temperature 76 °F 73 °F 72 °F (2016)
Cooling Degree Days 18    
Growing Degree Days 33 (Base 50)    
Moisture  
Dew Point 75 °F    
Average Humidity 82    
Maximum Humidity 94    
Minimum Humidity 52    
Precipitation  
Precipitation 0.00 in - - ()
Sea Level Pressure  
Sea Level Pressure 29.76 in    
Wind  
Wind Speed 1 mph ()    
Max Wind Speed 7 mph    
Max Gust Speed -    
Visibility 4.4 miles    
Events Fog    
Averages and records for this station are not official NWS values.
T = Trace of Precipitation, MM = Missing Value Source: Averaged Metar Reports

Daily Weather History Graph

Daily Weather History Graph

Search for Another Location

Airport or City:

Trip Planner

Search our weather history database for the weather conditions in past years. The results will help you decide how hot, cold, wet, or windy it might be!

Date:

Astronomy

Nov. 10, 2013 Rise Set
Actual Time 6:07 AM +07 5:57 PM +07
Civil Twilight 5:45 AM +07 6:18 PM +07
Nautical Twilight 5:20 AM +07 6:44 PM +07
Astronomical Twilight 4:55 AM +07 7:09 PM +07
Moon 12:20 PM +07 (11/10) No Moon Set
Length of Visible Light 12h 33m
Length of Day
11h 49m
Waxing Crescent, 49% of the Moon is Illuminated
Nov 10
Waxing Crescent
Nov 10
First Quarter
Nov 17
Full
Nov 26
Last Quarter
Dec 3
New

Hourly Weather History & Observations

Time (+07) Temp. Heat Index Dew Point Humidity Pressure Visibility Wind Dir Wind Speed Gust Speed Precip Events Conditions
12:00 AM 78.8 °F - 77.0 °F 94% 29.80 in 3.7 mi Calm Calm - N/A   Mostly Cloudy
12:30 AM 77.0 °F - 75.2 °F 94% 29.77 in 3.7 mi Calm Calm - N/A   Mostly Cloudy
1:00 AM 77 °F - 75 °F 92% 29.78 in 4 mi Calm Calm - -   Mist
1:00 AM 77.0 °F - 75.2 °F 94% 29.77 in 3.7 mi Calm Calm - N/A   Mostly Cloudy
1:30 AM 77.0 °F - 75.2 °F 94% 29.77 in 3.7 mi Calm Calm - N/A   Mostly Cloudy
2:00 AM 77.0 °F - 75.2 °F 94% 29.77 in 1.2 mi Calm Calm - N/A   Mostly Cloudy
2:30 AM 77.0 °F - 75.2 °F 94% 29.74 in 0.6 mi Calm Calm - N/A Fog Fog
3:00 AM 77.0 °F - 75.2 °F 94% 29.74 in 0.3 mi Calm Calm - N/A Fog Fog
4:00 AM 77.0 °F - 75.2 °F 94% 29.74 in 0.5 mi Calm Calm - N/A Fog Fog
4:30 AM 77.0 °F - 75.2 °F 94% 29.74 in 0.5 mi Calm Calm - N/A Fog Fog
5:00 AM 77.0 °F - 75.2 °F 94% 29.74 in 0.9 mi Calm Calm - N/A   Mostly Cloudy
5:30 AM 77.0 °F - 75.2 °F 94% 29.77 in 0.9 mi Calm Calm - N/A   Mostly Cloudy
6:00 AM 77.0 °F - 75.2 °F 94% 29.77 in 1.9 mi Calm Calm - N/A   Mostly Cloudy
6:30 AM 77.0 °F - 75.2 °F 94% 29.77 in 2.5 mi Calm Calm - N/A   Mostly Cloudy
7:00 AM 76 °F - 74 °F 94% 29.79 in 1 mi Calm Calm - -   Mist
7:00 AM 77.0 °F - 75.2 °F 94% 29.80 in 0.9 mi Calm Calm - N/A   Mostly Cloudy
7:30 AM 77.0 °F - 75.2 °F 94% 29.80 in 1.2 mi Calm Calm - N/A   Mostly Cloudy
8:00 AM 77.0 °F - 75.2 °F 94% 29.80 in 1.9 mi SSE 3.5 mph - N/A   Mostly Cloudy
8:30 AM 77.0 °F - 75.2 °F 94% 29.83 in 2.5 mi SSE 2.3 mph - N/A   Mostly Cloudy
9:00 AM 80.6 °F 86.2 °F 75.2 °F 84% 29.83 in 3.1 mi SW 2.3 mph - N/A   Overcast
9:30 AM 82.4 °F 89.5 °F 75.2 °F 79% 29.83 in 4.3 mi East 3.5 mph - N/A   Mostly Cloudy
10:00 AM 84.2 °F 94.1 °F 77.0 °F 79% 29.83 in 4.3 mi SE 2.3 mph - N/A   Mostly Cloudy
10:30 AM 86.0 °F 95.1 °F 75.2 °F 70% 29.83 in 5.6 mi SSE 3.5 mph - N/A   Mostly Cloudy
11:00 AM 87.8 °F 95.6 °F 73.4 °F 62% 29.80 in 6.2 mi South 3.5 mph - N/A   Mostly Cloudy
11:30 AM 87.8 °F 95.6 °F 73.4 °F 62% 29.77 in 6.2 mi Calm Calm - N/A   Mostly Cloudy
12:00 PM 87.8 °F 95.6 °F 73.4 °F 62% 29.77 in 6.2 mi NE 4.6 mph - N/A   Mostly Cloudy
12:30 PM 89.6 °F 99.8 °F 75.2 °F 62% 29.74 in 6.2 mi NNE 3.5 mph - N/A   Mostly Cloudy
1:00 PM 89 °F - 74 °F 52% 29.74 in 6 mi NNE 2.3 mph - -   Scattered Clouds
1:00 PM 89.6 °F 98.2 °F 73.4 °F 59% 29.74 in 6.2 mi NNE 2.3 mph - N/A   Mostly Cloudy
1:30 PM 89.6 °F 98.2 °F 73.4 °F 59% 29.71 in 6.2 mi West 2.3 mph - N/A   Mostly Cloudy
2:00 PM 89.6 °F 98.2 °F 73.4 °F 59% 29.71 in 6.2 mi NNE 2.3 mph - N/A   Mostly Cloudy
2:30 PM 87.8 °F 97.6 °F 75.2 °F 66% 29.68 in 6.2 mi NNW 4.6 mph - N/A   Mostly Cloudy
3:00 PM 89.6 °F 99.8 °F 75.2 °F 62% 29.68 in 6.2 mi NNE 5.8 mph - N/A   Mostly Cloudy
3:30 PM 89.6 °F 102.2 °F 77.0 °F 66% 29.68 in 6.2 mi NE 6.9 mph - N/A   Mostly Cloudy
4:00 PM 87.8 °F 97.6 °F 75.2 °F 66% 29.68 in 6.2 mi NE 5.8 mph - N/A   Mostly Cloudy
4:30 PM 86.0 °F 95.1 °F 75.2 °F 70% 29.68 in 6.2 mi East 5.8 mph - N/A   Mostly Cloudy
5:00 PM 84.2 °F 92.3 °F 75.2 °F 74% 29.71 in 6.2 mi SE 3.5 mph - N/A   Mostly Cloudy
5:30 PM 82.4 °F 89.5 °F 75.2 °F 79% 29.71 in 6.2 mi South 5.8 mph - N/A   Mostly Cloudy
6:00 PM 82.4 °F 89.5 °F 75.2 °F 79% 29.74 in 6.2 mi South 3.5 mph - N/A   Mostly Cloudy
6:30 PM 80.6 °F 86.2 °F 75.2 °F 84% 29.74 in 6.2 mi SE 2.3 mph - N/A   Mostly Cloudy
7:00 PM 80 °F - 75 °F 79% 29.77 in 6 mi SE 3.5 mph - -   Scattered Clouds
7:00 PM 80.6 °F 86.2 °F 75.2 °F 84% 29.77 in 6.2 mi SE 3.5 mph - N/A   Mostly Cloudy
7:30 PM 80.6 °F 86.2 °F 75.2 °F 84% 29.77 in 6.2 mi ESE 2.3 mph - N/A   Mostly Cloudy
8:00 PM 78.8 °F - 75.2 °F 89% 29.77 in 6.2 mi WNW 2.3 mph - N/A   Mostly Cloudy
8:30 PM 78.8 °F - 75.2 °F 89% 29.77 in 6.2 mi Calm Calm - N/A   Mostly Cloudy
9:00 PM 80.6 °F 86.2 °F 75.2 °F 84% 29.80 in 6.2 mi ESE 4.6 mph - N/A   Mostly Cloudy
9:30 PM 80.6 °F 86.2 °F 75.2 °F 84% 29.80 in 6.2 mi West 4.6 mph - N/A   Mostly Cloudy
10:00 PM 80.6 °F 86.2 °F 75.2 °F 84% 29.80 in 6.2 mi WNW 3.5 mph - N/A   Mostly Cloudy
10:30 PM 78.8 °F - 75.2 °F 89% 29.80 in 6.2 mi SW 4.6 mph - N/A   Mostly Cloudy
11:00 PM 78.8 °F - 75.2 °F 89% 29.80 in 6.2 mi South 3.5 mph - N/A   Mostly Cloudy
11:30 PM 78.8 °F - 75.2 °F 89% 29.80 in 5.6 mi Calm Calm - N/A   Mostly Cloudy